Regional Weather Roundup
Issued by NWS

Home | Current Version | Previous Version | Graphics & Text | Print | Product List | Glossary On
Versions: 1 2 3 4 5 6 7 8 9 10 11 12 13 14 15 16 17 18 19 20 21 22 23 24 25 26 27
000
ASUS45 KPSR 291810
RWRAZ

ARIZONA HOURLY REGIONAL WEATHER ROUNDUP
NATIONAL WEATHER SERVICE PHOENIX AZ
1100 AM MST THU SEP 29 2016

NOTE: FAIR INDICATES FEW OR NO CLOUDS BELOW 12,000 FEET WITH NO
SIGNIFICANT WEATHER AND/OR OBSTRUCTIONS TO VISIBILITY.

AZZ001>003-036-291900-
NORTHWEST ARIZONA

CITY           SKY/WX    TMP DP  RH WIND       PRES   REMARKS
BULLHEAD CITY  SUNNY     90  54  29 NW10      30.06F
KINGMAN        MOSUNNY   80  53  39 NE8       30.22F
6HR MIN TEMP:  64; 6HR MAX TEMP:  81;

$$

AZZ004>008-015-016-018-291900-
NORTH CENTRAL ARIZONA

CITY           SKY/WX    TMP DP  RH WIND       PRES   REMARKS
GRAND CANYON   CLOUDY    63  53  70 S6        30.44S
6HR MIN TEMP:  54; 6HR MAX TEMP:  63; 6HR PCP: TRACE;

PRESCOTT       CLOUDY    66  55  67 SE12      30.34S
6HR MIN TEMP:  57; 6HR MAX TEMP:  66; 6HR PCP: TRACE;

FLAGSTAFF      LGT RAIN  56  53  90 S7        30.48R
6HR MIN TEMP:  50; 6HR MAX TEMP:  56; 6HR PCP:  0.05;

PAYSON         LGT RAIN  63  57  82 VRB6      30.43R
PAGE           PTSUNNY   67  59  75 N6        30.33F
6HR MIN TEMP:  61; 6HR MAX TEMP:  67; 6HR PCP:  0.01;

$$

AZZ009>014-017-291900-
NORTHEAST ARIZONA

CITY           SKY/WX    TMP DP  RH WIND       PRES   REMARKS
WINSLOW        CLOUDY    68  59  73 SE14      30.37S
6HR MIN TEMP:  59; 6HR MAX TEMP:  68; 6HR PCP:  0.02;

SAINT JOHNS    LGT RAIN  57  55  93 N6        30.43S
6HR MIN TEMP:  57; 6HR MAX TEMP:  58; 6HR PCP:  0.25;

WINDOW ROCK    RAIN      56  53  90 NW5       30.51S FOG
6HR MIN TEMP:  54; 6HR MAX TEMP:  58; 6HR PCP:  0.34;

SHOW LOW       TSTM      54  52  94 NE6       30.45S
$$

AZZ023-291900-
GREATER PHOENIX AREA

CITY           SKY/WX    TMP DP  RH WIND       PRES   REMARKS
PHOENIX        CLOUDY    80  63  55 NE8       30.10F
6HR MIN TEMP:  75; 6HR MAX TEMP:  82; 6HR PCP:  0.02;

BUCKEYE        PTSUNNY   84  63  48 E15       30.11F
GLENDALE       PTSUNNY   84  63  48 NE8       30.13R
LUKE AFB       PTSUNNY   85  62  46 E9        30.10F
6HR MIN TEMP:  75; 6HR MAX TEMP:  85; 6HR PCP:  0.02;

DEER VALLEY    CLOUDY    80  61  52 NE12      30.12F
6HR MIN TEMP:  76; 6HR MAX TEMP:  80; 6HR PCP:  0.01;

SCOTTSDALE     CLOUDY    81  62  52 NE6       30.14F
6HR MIN TEMP:  77; 6HR MAX TEMP:  82; 6HR PCP: TRACE;

MESA-FALCON    CLOUDY   N/A N/A N/A N17G23    30.08F
MESA-GATEWAY   PTSUNNY   79  64  61 E12G17    30.12F
CHANDLER       PTSUNNY   79  66  65 NE10      30.11F
$$

AZZ027-028-291900-
SOUTHWEST MARICOPA COUNTY AND PINAL COUNTY

CITY           SKY/WX    TMP DP  RH WIND       PRES   REMARKS
CASA GRANDE    CLOUDY    81  63  54 NE10G16   30.12F
6HR MIN TEMP:  72; 6HR MAX TEMP:  81;

GILA BEND      MOSUNNY   87  57  35 NE13      30.06F
6HR MIN TEMP:  75; 6HR MAX TEMP:  87; 6HR PCP: TRACE;

$$

AZZ503-504-507>509-291900-
SOUTHEAST ARIZONA

CITY           SKY/WX    TMP DP  RH WIND       PRES   REMARKS
TUCSON         PTSUNNY   79  62  56 SE5       30.19F
6HR MIN TEMP:  68; 6HR MAX TEMP:  79; 6HR PCP:  0.04;

DAVIS-MONTHAN  MOSUNNY   79  62  55 S6        30.18F
6HR MIN TEMP:  68; 6HR MAX TEMP:  79; 6HR PCP:  0.02;

RYAN FIELD     SUNNY     79  63  57 SE6       30.18F
NOGALES        PTSUNNY   79  59  50 W8        30.25S
6HR MIN TEMP:  63; 6HR MAX TEMP:  80;

SIERRA VISTA   MOSUNNY   79  57  47 VRB1      30.30F
6HR MIN TEMP:  62; 6HR MAX TEMP:  79;

DOUGLAS        CLOUDY    82  56  40 VRB6      30.26F
6HR MIN TEMP:  58; 6HR MAX TEMP:  82;

SAFFORD        MOSUNNY   81  58  45 E6        30.21F
6HR MIN TEMP:  64; 6HR MAX TEMP:  82;

$$

AZZ020-021-025-026-031-291900-
SOUTHWEST ARIZONA

CITY           SKY/WX    TMP DP  RH WIND       PRES   REMARKS
YUMA           PTSUNNY   86  59  39 CALM      30.03R
6HR MIN TEMP:  76; 6HR MAX TEMP:  87;

$$

CAZ031-033-041-043-047-048-061-291900-
SOUTHERN CALIFORNIA

CITY           SKY/WX    TMP DP  RH WIND       PRES   REMARKS
DOWNTOWN L.A.  SUNNY     89  54  30 CALM      30.01S
6HR MIN TEMP:  69; 6HR MAX TEMP:  89;

L.A. AIRPORT   MOSUNNY   82  64  54 W9        30.03S
6HR MIN TEMP:  69; 6HR MAX TEMP:  84;

SAN DIEGO      MOSUNNY   83  56  39 NW6       30.05R
6HR MIN TEMP:  71; 6HR MAX TEMP:  83;

BURBANK        SUNNY     87  49  26 CALM      30.05S
6HR MIN TEMP:  69; 6HR MAX TEMP:  87;

ONTARIO        MOSUNNY   88  47  24 VRB3      30.06S
6HR MIN TEMP:  69; 6HR MAX TEMP:  88;

RIVERSIDE      MOSUNNY   89  48  24 VRB3      30.05F
6HR MIN TEMP:  67; 6HR MAX TEMP:  89;

PALM SPRINGS   MOSUNNY   88  49  25 CALM      30.06S
6HR MIN TEMP:  72; 6HR MAX TEMP:  88;

EL CENTRO NAS  PTSUNNY   89  51  27 N7        30.03S
6HR MIN TEMP:  67; 6HR MAX TEMP:  89;

IMPERIAL       PTSUNNY   88  57  34 N7        30.01F
6HR MIN TEMP:  70; 6HR MAX TEMP:  88;

BLYTHE         SUNNY     88  55  32 SE5       30.04S
6HR MIN TEMP:  71; 6HR MAX TEMP:  88;

NEEDLES        SUNNY     90  54  29 N5        30.07F
6HR MIN TEMP:  76; 6HR MAX TEMP:  90;

$$

NVZ020-UTZ003-291900-
SOUTHERN NEVADA-UTAH

CITY           SKY/WX    TMP DP  RH WIND       PRES   REMARKS
LAS VEGAS      MOSUNNY   82  49  31 E10       30.16S
6HR MIN TEMP:  71; 6HR MAX TEMP:  82;

SALT LAKE CITY PTSUNNY   76  46  34 S16G29    30.22F
6HR MIN TEMP:  62; 6HR MAX TEMP:  76;

$$

NMZ009-TXZ055-291900-
NEW MEXICO-WEST TEXAS

CITY           SKY/WX    TMP DP  RH WIND       PRES   REMARKS
ALBUQUERQUE    PTSUNNY   76  39  26 W9        30.41S
6HR MIN TEMP:  63; 6HR MAX TEMP:  76;

EL PASO        PTSUNNY   80  50  34 E14G23    30.33S
$$


........................KEY........................
SKY/WX - SKY CONDITION/WEATHER
TMP    - TEMPERATURE IN FAHRENHEIT
DP     - DEW POINT IN FAHRENHEIT
RH     - RELATIVE HUMIDITY IN PERCENT
WIND   - DIRECTION AND SPEED IN MILES PER HOUR (MPH)
VRB    - VARIABLE WIND DIRECTION
PRES   - MEAN SEA LEVEL PRESSURE IN INCHES OF MERCURY
         F - FALLING PRESSURE   R - RISING PRESSURE
         S - STEADY PRESSURE
VSB    - VISIBILITY IN MILES
HX     - HEAT INDEX IN FAHRENHEIT
WCI    - WIND CHILL INDEX IN FAHRENHEIT
TC     - TEMPERATURE IN CELSIUS WHICH IS ALSO KNOWN AS
         TEMPERATURE IN CENTIGRADE
AFB    - AIR FORCE BASE
         LUKE AFB IS LUKE AIR FORCE BASE
         DAVIS-MONTHAN IS DAVIS-MONTHAN AIR FORCE BASE
NAS    - NAVAL AIR STATION
         EL CENTRO NAS IS EL CENTRO NAVAL AIR STATION
N/A    - NOT AVAILABLE





USA.gov is the U.S. government's official web portal to all federal, state and local government web resources and services.